ACA1361 KMIA-CYUL

Flight info

Callsign ACA1361
Flight time N/A
Altitude 38000
Route FOLZZ3 ALYRA DCT GRUBR/N0466F390 Y299 SEELO DCT WAALT Q131 EARZZ DCT JAMIE Q133 PBERG CARTR5
Aircraft A339/H-SADE1E2E3GHIJ3J5M1P2RWXY/LB2D1

Departure

Time 2026-05-07 09:58
Airport Miami International Airport (KMIA)

Arrival

Time N/A
Airport Montreal / Pierre Elliott Trudeau International Airport (CYUL)
Time Latitude Longitude Altitude Speed Heading
2026-05-07 09:31 25.79399 -80.28406 23 ft 0 kts
2026-05-07 09:41 25.79396 -80.28406 23 ft 2 kts
2026-05-07 09:41 25.79382 -80.28412 23 ft 2 kts 23°
2026-05-07 09:41 25.79368 -80.28418 23 ft 2 kts 19°
2026-05-07 09:42 25.79354 -80.28423 23 ft 2 kts 19°
2026-05-07 09:42 25.79339 -80.28429 23 ft 2 kts 19°
2026-05-07 09:42 25.79325 -80.28435 23 ft 2 kts 19°
2026-05-07 09:42 25.79310 -80.28440 23 ft 2 kts 19°
2026-05-07 09:43 25.79296 -80.28445 23 ft 2 kts 19°
2026-05-07 09:43 25.79282 -80.28451 23 ft 2 kts 19°
2026-05-07 09:43 25.79268 -80.28456 23 ft 2 kts 19°
2026-05-07 09:43 25.79259 -80.28460 23 ft 2 kts 18°
2026-05-07 09:44 25.79245 -80.28459 23 ft 2 kts 324°
2026-05-07 09:44 25.79238 -80.28452 23 ft 0 kts 298°
2026-05-07 09:44 25.79236 -80.28448 23 ft 0 kts 300°
2026-05-07 09:52 25.79239 -80.28455 23 ft 2 kts 300°
2026-05-07 09:52 25.79261 -80.28496 23 ft 9 kts 302°
2026-05-07 09:52 25.79303 -80.28569 23 ft 12 kts 301°
2026-05-07 09:53 25.79346 -80.28654 23 ft 15 kts 299°
2026-05-07 09:53 25.79423 -80.28805 23 ft 23 kts 300°
2026-05-07 09:53 25.79502 -80.28957 23 ft 22 kts 300°
2026-05-07 09:53 25.79577 -80.29105 23 ft 21 kts 300°
2026-05-07 09:54 25.79649 -80.29244 23 ft 20 kts 300°
2026-05-07 09:54 25.79719 -80.29382 22 ft 20 kts 299°
2026-05-07 09:54 25.79788 -80.29517 22 ft 20 kts 299°
2026-05-07 09:54 25.79857 -80.29652 21 ft 19 kts 300°
2026-05-07 09:55 25.79891 -80.29787 21 ft 17 kts 261°
2026-05-07 09:55 25.79883 -80.29913 21 ft 14 kts 278°
2026-05-07 09:55 25.79915 -80.30023 21 ft 15 kts 289°
2026-05-07 09:55 25.79949 -80.30122 21 ft 12 kts 290°
2026-05-07 09:56 25.79988 -80.30165 20 ft 5 kts 14°
2026-05-07 09:56 25.80031 -80.30140 20 ft 7 kts 28°
2026-05-07 09:56 25.80067 -80.30097 20 ft 8 kts 69°
2026-05-07 09:56 25.80072 -80.30048 21 ft 0 kts 86°
2026-05-07 09:57 25.80076 -80.29977 21 ft 34 kts 88°
2026-05-07 09:57 25.80097 -80.29450 22 ft 99 kts 88°
2026-05-07 09:57 25.80137 -80.28469 23 ft 153 kts 86°
2026-05-07 09:57 25.80194 -80.27136 225 ft 181 kts 88°
2026-05-07 09:58 25.80250 -80.25716 694 ft 191 kts 88°
2026-05-07 09:58 25.80184 -80.24214 1201 ft 204 kts 106°
2026-05-07 09:58 25.79551 -80.22764 1805 ft 213 kts 123°
2026-05-07 09:58 25.78775 -80.21393 2481 ft 214 kts 121°
2026-05-07 09:59 25.78036 -80.19971 3159 ft 214 kts 119°
2026-05-07 09:59 25.77343 -80.18522 3825 ft 215 kts 117°
2026-05-07 09:59 25.76669 -80.17052 4478 ft 215 kts 120°
2026-05-07 09:59 25.75891 -80.15640 5112 ft 215 kts 122°
2026-05-07 10:00 25.75052 -80.14243 5667 ft 220 kts 124°
2026-05-07 10:00 25.74230 -80.12803 6177 ft 224 kts 110°
2026-05-07 10:00 25.74000 -80.11117 6651 ft 227 kts 81°
2026-05-07 10:00 25.74547 -80.09495 7193 ft 227 kts 56°
2026-05-07 10:01 25.75484 -80.08124 7825 ft 225 kts 48°
2026-05-07 10:01 25.76521 -80.06847 8386 ft 225 kts 50°
2026-05-07 10:01 25.77544 -80.05496 8870 ft 229 kts 51°
2026-05-07 10:01 25.78548 -80.04137 9363 ft 232 kts 52°
2026-05-07 10:02 25.79570 -80.02730 9878 ft 234 kts 52°
2026-05-07 10:02 25.80631 -80.01363 10395 ft 236 kts 49°
2026-05-07 10:02 25.81765 -80.00028 10770 ft 246 kts 46°
2026-05-07 10:02 25.82973 -79.98660 11011 ft 260 kts 46°
2026-05-07 10:03 25.84254 -79.97162 11266 ft 275 kts 47°
2026-05-07 10:03 25.85594 -79.95541 11528 ft 290 kts 48°
2026-05-07 10:03 25.86957 -79.93857 11782 ft 305 kts 48°
2026-05-07 10:03 25.88410 -79.92038 12040 ft 320 kts 49°
2026-05-07 10:04 25.89913 -79.90143 12349 ft 332 kts 49°
2026-05-07 10:04 25.91439 -79.88207 12914 ft 336 kts 48°
2026-05-07 10:04 25.92988 -79.86240 13507 ft 338 kts 48°
2026-05-07 10:04 25.94516 -79.84293 14069 ft 341 kts 48°
2026-05-07 10:05 25.96086 -79.82290 14632 ft 345 kts 47°
2026-05-07 10:05 25.97668 -79.80273 15183 ft 348 kts 47°
2026-05-07 10:05 25.99260 -79.78242 15706 ft 352 kts 46°
2026-05-07 10:05 26.00884 -79.76170 16242 ft 356 kts 46°
2026-05-07 10:06 26.02507 -79.74099 16760 ft 360 kts 46°
2026-05-07 10:06 26.04150 -79.72002 17273 ft 363 kts 46°
2026-05-07 10:06 26.05820 -79.69868 17793 ft 367 kts 45°
2026-05-07 10:06 26.07504 -79.67716 18292 ft 371 kts 45°
2026-05-07 10:07 26.09212 -79.65533 18787 ft 375 kts 45°
2026-05-07 10:07 26.10857 -79.63298 19291 ft 380 kts 49°
2026-05-07 10:07 26.12439 -79.60889 19794 ft 385 kts 51°
2026-05-07 10:07 26.13987 -79.58454 20271 ft 389 kts 51°
2026-05-07 10:08 26.15542 -79.55999 20758 ft 393 kts 51°
2026-05-07 10:08 26.17123 -79.53500 21229 ft 397 kts 50°
2026-05-07 10:08 26.18717 -79.50982 21675 ft 401 kts 50°
2026-05-07 10:08 26.20322 -79.48448 22109 ft 405 kts 50°
2026-05-07 10:09 26.21950 -79.45880 22560 ft 409 kts 50°
2026-05-07 10:09 26.23591 -79.43286 23002 ft 412 kts 50°
2026-05-07 10:09 26.25265 -79.40642 23459 ft 416 kts 50°
2026-05-07 10:09 26.26921 -79.38040 23916 ft 417 kts 48°
2026-05-07 10:10 26.28826 -79.35573 24375 ft 415 kts 39°
2026-05-07 10:10 26.30992 -79.33451 24806 ft 413 kts 32°
2026-05-07 10:10 26.33324 -79.31670 25227 ft 413 kts 28°
2026-05-07 10:10 26.35781 -79.29928 25672 ft 415 kts 27°
2026-05-07 10:11 26.38193 -79.28234 26099 ft 417 kts 27°
2026-05-07 10:11 26.40653 -79.26503 26505 ft 420 kts 27°
2026-05-07 10:11 26.43146 -79.24740 26921 ft 422 kts 27°
2026-05-07 10:11 26.45629 -79.22977 27310 ft 425 kts 27°
2026-05-07 10:12 26.48110 -79.21212 27700 ft 427 kts 27°
2026-05-07 10:12 26.50621 -79.19422 28085 ft 430 kts 27°
2026-05-07 10:12 26.53164 -79.17609 28457 ft 432 kts 27°
2026-05-07 10:12 26.55704 -79.15796 28833 ft 435 kts 27°
2026-05-07 10:13 26.58263 -79.13966 29206 ft 437 kts 27°
2026-05-07 10:13 26.60806 -79.12148 29569 ft 439 kts 27°
2026-05-07 10:13 26.63417 -79.10279 29926 ft 442 kts 27°
2026-05-07 10:13 26.65995 -79.08433 30277 ft 444 kts 27°
2026-05-07 10:14 26.68609 -79.06561 30605 ft 447 kts 27°
2026-05-07 10:14 26.71232 -79.04682 30939 ft 449 kts 27°
2026-05-07 10:14 26.73873 -79.02787 31258 ft 452 kts 27°
2026-05-07 10:14 26.76507 -79.00897 31572 ft 454 kts 27°
2026-05-07 10:15 26.79194 -78.98966 31880 ft 457 kts 27°
2026-05-07 10:15 26.81854 -78.97056 32182 ft 459 kts 27°
2026-05-07 10:15 26.84556 -78.95113 32476 ft 461 kts 27°
2026-05-07 10:15 26.87271 -78.93158 32762 ft 464 kts 27°
2026-05-07 10:16 26.89982 -78.91206 33047 ft 466 kts 27°
2026-05-07 10:16 26.92690 -78.89256 33393 ft 467 kts 27°
2026-05-07 10:16 26.95428 -78.87279 33845 ft 465 kts 27°
2026-05-07 10:16 26.98138 -78.85322 34312 ft 464 kts 27°
2026-05-07 10:17 27.00835 -78.83374 34749 ft 462 kts 27°
2026-05-07 10:17 27.03532 -78.81426 35172 ft 461 kts 27°
2026-05-07 10:17 27.06231 -78.79476 35588 ft 459 kts 27°
2026-05-07 10:17 27.08886 -78.77557 35969 ft 458 kts 27°
2026-05-07 10:18 27.11558 -78.75623 36317 ft 457 kts 27°
2026-05-07 10:18 27.14263 -78.73666 36600 ft 458 kts 27°
2026-05-07 10:18 27.16955 -78.71719 36817 ft 460 kts 27°
2026-05-07 10:18 27.19635 -78.69777 37039 ft 462 kts 27°
2026-05-07 10:19 27.22370 -78.67920 37279 ft 460 kts 22°
2026-05-07 10:19 27.25206 -78.66287 37516 ft 457 kts 18°
2026-05-07 10:19 27.28125 -78.64895 37743 ft 455 kts 14°
2026-05-07 10:19 27.31106 -78.63748 37960 ft 452 kts 11°
2026-05-07 10:20 27.34146 -78.62844 38014 ft 451 kts
2026-05-07 10:20 27.40321 -78.61738 38022 ft 446 kts
2026-05-07 10:21 27.46460 -78.60947 38021 ft 445 kts
2026-05-07 10:21 27.52643 -78.60157 38020 ft 445 kts
2026-05-07 10:22 27.58753 -78.59369 38014 ft 444 kts
2026-05-07 10:22 27.64921 -78.58571 38021 ft 445 kts
2026-05-07 10:23 27.71098 -78.57768 38033 ft 447 kts
2026-05-07 10:23 27.77260 -78.56965 38040 ft 447 kts
2026-05-07 10:24 27.83443 -78.56159 38039 ft 446 kts
2026-05-07 10:24 27.89608 -78.55353 38041 ft 446 kts
2026-05-07 10:25 27.95800 -78.54542 38044 ft 446 kts
2026-05-07 10:25 28.01980 -78.53734 38042 ft 446 kts
2026-05-07 10:26 28.08130 -78.52929 38041 ft 444 kts
2026-05-07 10:26 28.14260 -78.52124 38041 ft 444 kts 360°
2026-05-07 10:27 28.20430 -78.51314 38040 ft 445 kts 360°
2026-05-07 10:27 28.26611 -78.50502 38039 ft 446 kts 360°
2026-05-07 10:28 28.32755 -78.49694 38040 ft 446 kts 360°
2026-05-07 10:28 28.38951 -78.48876 38040 ft 445 kts 360°
2026-05-07 10:29 28.45096 -78.48065 38037 ft 445 kts 360°
2026-05-07 10:29 28.51275 -78.47250 38034 ft 446 kts 359°
2026-05-07 10:30 28.60550 -78.46022 38031 ft 446 kts 360°
2026-05-07 10:30 28.66720 -78.45204 38028 ft 446 kts 359°
2026-05-07 10:31 28.72914 -78.44382 38026 ft 446 kts 359°
2026-05-07 10:31 28.79070 -78.43564 38026 ft 446 kts 359°
2026-05-07 10:32 28.85227 -78.42744 38024 ft 445 kts 359°
2026-05-07 10:32 28.91384 -78.41925 38023 ft 447 kts 359°
2026-05-07 10:33 28.97584 -78.41099 38021 ft 447 kts 359°
2026-05-07 10:33 29.03765 -78.40276 38025 ft 446 kts 359°
2026-05-07 10:34 29.09924 -78.39451 38025 ft 447 kts 359°
2026-05-07 10:34 29.16131 -78.38622 38027 ft 447 kts 359°
2026-05-07 10:35 29.22320 -78.37793 38022 ft 447 kts 359°
2026-05-07 10:35 29.28484 -78.36965 38024 ft 446 kts 359°
2026-05-07 10:36 29.34649 -78.36138 38027 ft 447 kts 359°
2026-05-07 10:36 29.40826 -78.35387 38025 ft 444 kts 356°
2026-05-07 10:37 29.46928 -78.35322 38022 ft 438 kts 349°
2026-05-07 10:37 29.52950 -78.36049 38025 ft 432 kts 343°
2026-05-07 10:38 29.58796 -78.37536 38022 ft 427 kts 338°
2026-05-07 10:38 29.64518 -78.39381 38025 ft 427 kts 338°
2026-05-07 10:39 29.70252 -78.41251 38026 ft 427 kts 337°
2026-05-07 10:39 29.75936 -78.43109 38021 ft 426 kts 338°
2026-05-07 10:40 29.81655 -78.44977 38026 ft 427 kts 338°
2026-05-07 10:40 29.87380 -78.46850 38022 ft 427 kts 338°
2026-05-07 10:41 29.93084 -78.48717 38024 ft 427 kts 338°
2026-05-07 10:41 29.98798 -78.50590 38023 ft 428 kts 338°
2026-05-07 10:42 30.04535 -78.52473 38020 ft 426 kts 338°
2026-05-07 10:42 30.10365 -78.53997 38016 ft 434 kts 343°
2026-05-07 10:43 30.16413 -78.54761 38012 ft 441 kts 349°
2026-05-07 10:43 30.22583 -78.54708 38014 ft 446 kts 356°
2026-05-07 10:44 30.28759 -78.53943 38011 ft 450 kts 359°
2026-05-07 10:44 30.34996 -78.53036 38012 ft 450 kts 359°
2026-05-07 10:45 30.41233 -78.52135 38010 ft 452 kts 359°
2026-05-07 10:45 30.47468 -78.51162 38010 ft 453 kts 360°
2026-05-07 10:46 30.53656 -78.50149 38008 ft 452 kts 360°
2026-05-07 10:46 30.59907 -78.49131 38010 ft 452 kts 360°
2026-05-07 10:47 30.66130 -78.48119 38011 ft 453 kts 360°
2026-05-07 10:47 30.72371 -78.47105 38010 ft 453 kts
2026-05-07 10:48 30.78599 -78.46089 38008 ft 452 kts 360°
2026-05-07 10:48 30.84868 -78.45069 38004 ft 453 kts 360°
2026-05-07 10:49 30.91093 -78.44055 38003 ft 454 kts 360°
2026-05-07 10:49 30.97377 -78.43027 38002 ft 455 kts 360°
2026-05-07 10:50 31.03632 -78.42005 38005 ft 455 kts 360°
2026-05-07 10:50 31.09874 -78.40982 38006 ft 453 kts 360°
2026-05-07 10:51 31.15830 -78.40006 38005 ft 454 kts 360°
2026-05-07 10:51 31.22091 -78.38979 38010 ft 455 kts 360°
2026-05-07 10:52 31.28344 -78.37950 38003 ft 456 kts 360°
2026-05-07 10:52 31.34642 -78.36912 38010 ft 455 kts 359°
2026-05-07 10:53 31.40885 -78.35884 38004 ft 454 kts 359°
2026-05-07 10:53 31.47150 -78.34849 38000 ft 454 kts 360°
2026-05-07 10:54 31.53423 -78.33813 38002 ft 455 kts 360°
2026-05-07 10:54 31.59709 -78.32774 38009 ft 456 kts 360°
2026-05-07 10:55 31.65961 -78.31737 38000 ft 455 kts 360°
2026-05-07 10:55 31.72240 -78.30696 38010 ft 456 kts 360°
2026-05-07 10:56 31.78517 -78.29651 38002 ft 456 kts 360°
2026-05-07 10:56 31.84808 -78.28604 38007 ft 456 kts 360°
2026-05-07 10:57 31.91089 -78.27558 38004 ft 456 kts 360°
2026-05-07 10:57 31.97400 -78.26505 38002 ft 456 kts 359°
2026-05-07 10:58 32.03679 -78.25395 38007 ft 460 kts
2026-05-07 10:58 32.09990 -78.24053 38002 ft 461 kts
2026-05-07 10:59 32.16289 -78.22684 38003 ft 461 kts
2026-05-07 10:59 32.22584 -78.21322 38001 ft 459 kts
2026-05-07 11:00 32.28886 -78.19960 37992 ft 461 kts
2026-05-07 11:00 32.35186 -78.18596 37992 ft 461 kts
2026-05-07 11:01 32.41512 -78.17227 37995 ft 462 kts
2026-05-07 11:01 32.47817 -78.15859 37993 ft 462 kts
2026-05-07 11:02 32.54140 -78.14484 37993 ft 462 kts
2026-05-07 11:02 32.60428 -78.13118 37992 ft 462 kts
2026-05-07 11:03 32.66782 -78.11732 37991 ft 463 kts
2026-05-07 11:03 32.73107 -78.10352 37993 ft 462 kts
2026-05-07 11:04 32.79400 -78.08975 37988 ft 461 kts
2026-05-07 11:04 32.85737 -78.07591 37990 ft 463 kts
2026-05-07 11:05 32.92073 -78.06201 37982 ft 462 kts
2026-05-07 11:05 32.98414 -78.04811 37984 ft 464 kts
2026-05-07 11:06 33.04760 -78.03416 37979 ft 467 kts
2026-05-07 11:06 33.11106 -78.02020 37977 ft 464 kts
2026-05-07 11:07 33.17495 -78.00613 37975 ft 466 kts
2026-05-07 11:07 33.23864 -77.99204 37972 ft 466 kts
2026-05-07 11:08 33.30218 -77.97799 37967 ft 465 kts
2026-05-07 11:08 33.36566 -77.96394 37968 ft 466 kts
2026-05-07 11:09 33.42976 -77.94975 37963 ft 466 kts
2026-05-07 11:09 33.49352 -77.93558 37960 ft 466 kts
2026-05-07 11:10 33.55751 -77.92136 37957 ft 469 kts
2026-05-07 11:10 33.62145 -77.90708 37956 ft 467 kts
2026-05-07 11:11 33.68520 -77.89289 37952 ft 467 kts
2026-05-07 11:11 33.74946 -77.87852 37951 ft 469 kts
2026-05-07 11:12 33.81332 -77.86396 37951 ft 471 kts
2026-05-07 11:12 33.87763 -77.84781 37945 ft 473 kts
2026-05-07 11:13 33.94226 -77.83137 37946 ft 473 kts
2026-05-07 11:13 34.00643 -77.81512 37947 ft 473 kts
2026-05-07 11:14 34.07064 -77.79892 37950 ft 473 kts
2026-05-07 11:14 34.13519 -77.78259 37946 ft 474 kts
2026-05-07 11:15 34.19946 -77.76634 37953 ft 475 kts
2026-05-07 11:15 34.26420 -77.74993 37949 ft 474 kts
2026-05-07 11:16 34.32892 -77.73350 37950 ft 477 kts
2026-05-07 11:16 34.39379 -77.71697 37948 ft 475 kts
2026-05-07 11:17 34.45820 -77.70058 37945 ft 476 kts
2026-05-07 11:17 34.52287 -77.68285 37943 ft 479 kts
2026-05-07 11:18 34.58697 -77.65710 37944 ft 491 kts 12°
2026-05-07 11:18 34.64971 -77.62238 37951 ft 498 kts 16°
2026-05-07 11:19 34.71155 -77.58515 37952 ft 499 kts 16°
2026-05-07 11:19 34.77398 -77.54754 37942 ft 499 kts 16°
2026-05-07 11:20 34.83570 -77.51039 37957 ft 496 kts 16°
2026-05-07 11:20 34.89784 -77.47317 37952 ft 499 kts 16°
2026-05-07 11:21 34.95961 -77.43600 37949 ft 498 kts 16°
2026-05-07 11:21 35.02204 -77.39842 37951 ft 498 kts 16°
2026-05-07 11:22 35.08434 -77.36083 37939 ft 498 kts 16°
2026-05-07 11:22 35.14624 -77.32349 37933 ft 502 kts 17°
2026-05-07 11:23 35.20850 -77.28580 37937 ft 504 kts 17°
2026-05-07 11:23 35.26902 -77.24911 37939 ft 503 kts 17°
2026-05-07 11:24 35.33180 -77.21093 37939 ft 502 kts 17°
2026-05-07 11:24 35.39432 -77.17292 37930 ft 504 kts 16°
2026-05-07 11:25 35.45648 -77.13502 37921 ft 502 kts 17°
2026-05-07 11:25 35.51933 -77.09667 37924 ft 505 kts 16°
2026-05-07 11:26 35.58213 -77.05832 37915 ft 507 kts 17°
2026-05-07 11:26 35.64484 -77.01983 37918 ft 507 kts 16°
2026-05-07 11:27 35.70841 -76.98081 37913 ft 507 kts 17°
2026-05-07 11:27 35.77126 -76.94214 37905 ft 507 kts 17°
2026-05-07 11:28 35.83392 -76.90350 37915 ft 505 kts 16°
2026-05-07 11:28 35.89701 -76.86465 37910 ft 505 kts 15°
2026-05-07 11:29 35.96088 -76.82983 37906 ft 500 kts 12°
2026-05-07 11:29 36.02472 -76.79713 37903 ft 499 kts 12°
2026-05-07 11:30 36.08935 -76.76397 37895 ft 501 kts 12°
2026-05-07 11:30 36.15244 -76.73138 37888 ft 502 kts 11°
2026-05-07 11:31 36.21738 -76.69779 37881 ft 503 kts 12°
2026-05-07 11:31 36.28183 -76.66434 37893 ft 507 kts 11°
2026-05-07 11:32 36.37946 -76.61352 37890 ft 505 kts 11°
2026-05-07 11:33 36.44398 -76.57989 37907 ft 504 kts 11°
2026-05-07 11:33 36.50898 -76.54596 37909 ft 506 kts 11°
2026-05-07 11:34 36.57390 -76.51202 37904 ft 509 kts 10°
2026-05-07 11:34 36.63909 -76.47787 37903 ft 512 kts 11°
2026-05-07 11:35 36.70476 -76.44338 37903 ft 512 kts 11°
2026-05-07 11:35 36.76967 -76.40914 37902 ft 511 kts 11°
2026-05-07 11:36 36.83521 -76.37463 37906 ft 513 kts 10°
2026-05-07 11:36 36.90114 -76.33983 37894 ft 515 kts 11°
2026-05-07 11:37 36.96715 -76.30491 37893 ft 516 kts 11°
2026-05-07 11:37 37.03356 -76.26969 37893 ft 520 kts 11°
2026-05-07 11:38 37.09957 -76.23453 37896 ft 518 kts 11°
2026-05-07 11:38 37.16617 -76.19914 37903 ft 520 kts 11°
2026-05-07 11:39 37.22948 -76.16534 37904 ft 518 kts 11°
2026-05-07 11:39 37.29559 -76.13004 37906 ft 520 kts 11°
2026-05-07 11:40 37.36219 -76.09443 37910 ft 521 kts 10°
2026-05-07 11:40 37.42894 -76.05859 37915 ft 521 kts 10°
2026-05-07 11:41 37.49534 -76.02295 37911 ft 523 kts 10°
2026-05-07 11:41 37.56238 -75.98675 37913 ft 521 kts 11°
2026-05-07 11:42 37.62778 -75.94515 37908 ft 539 kts 18°
2026-05-07 11:42 37.69125 -75.89402 37911 ft 544 kts 22°
2026-05-07 11:43 37.75396 -75.84126 37916 ft 544 kts 22°
2026-05-07 11:43 37.81706 -75.78842 37914 ft 545 kts 21°
2026-05-07 11:44 37.88038 -75.73567 37922 ft 547 kts 21°
2026-05-07 11:44 37.94412 -75.68250 37926 ft 547 kts 22°
2026-05-07 11:45 38.00746 -75.62950 37925 ft 547 kts 22°
2026-05-07 11:45 38.07100 -75.57630 37927 ft 548 kts 21°
2026-05-07 11:46 38.13444 -75.52303 37924 ft 548 kts 21°
2026-05-07 11:46 38.19573 -75.47186 37932 ft 548 kts 20°
2026-05-07 11:46 38.23016 -75.44661 37928 ft 535 kts 14°
2026-05-07 11:47 38.26329 -75.42648 37934 ft 525 kts
2026-05-07 11:47 38.33022 -75.39724 37933 ft 508 kts 359°
2026-05-07 11:48 38.39841 -75.38026 37932 ft 497 kts 353°
2026-05-07 11:48 38.46671 -75.36665 37939 ft 493 kts 353°
2026-05-07 11:49 38.53393 -75.35286 37927 ft 491 kts 353°
2026-05-07 11:49 38.60157 -75.33858 37925 ft 495 kts 354°
2026-05-07 11:50 38.66927 -75.32416 37941 ft 495 kts 354°
2026-05-07 11:50 38.73793 -75.30472 37934 ft 511 kts
2026-05-07 11:51 38.80535 -75.27450 37931 ft 526 kts
2026-05-07 11:51 38.87204 -75.23247 37941 ft 543 kts 16°
2026-05-07 11:52 38.93779 -75.18491 37938 ft 540 kts 17°
2026-05-07 11:52 39.00313 -75.13770 37937 ft 540 kts 17°
2026-05-07 11:53 39.06865 -75.09088 37953 ft 543 kts 17°
2026-05-07 11:53 39.13459 -75.04367 37942 ft 541 kts 17°
2026-05-07 11:54 39.19978 -74.99686 37949 ft 539 kts 17°
2026-05-07 11:54 39.26266 -74.95064 37947 ft 548 kts 20°
2026-05-07 11:55 39.32697 -74.89423 37949 ft 553 kts 24°
2026-05-07 11:55 39.38985 -74.83630 37943 ft 553 kts 24°
2026-05-07 11:56 39.45228 -74.77895 37948 ft 554 kts 23°
2026-05-07 11:56 39.51524 -74.72120 37941 ft 553 kts 23°
2026-05-07 11:57 39.56727 -74.67351 37947 ft 552 kts 23°